This demonstration page uses our WeatherBlox Daily Observations layout. Learn more.

Left ArrowRight Arrow

39.08367, -84.50855

Hourly Observations for June 17, 2015

Temp ( °F °C ) Dew Point ( °F °C ) Humidity (%) Winds ( mph kmh ) Pressure ( in mb ) Visibility ( mi km ) Precip ( " mm )
6:21 am 06:21 Cloudy with Light Rain 72 22.2 71 21.7 97 97 S 5 7 30.06 1018 10 16 N/A
6:53 am 06:53 Mostly Cloudy 72 22.2 71 21.7 97 97 N N/A 30.06 1018 8 13 N/A
7:41 am 07:41 Cloudy with Rain 72 22.2 71 21.7 97 97 SSW 8 13 30.06 1018 2 3 0.13 3.30
7:53 am 07:53 Mostly Cloudy with Light Rain 72 22.2 70 21.1 94 94 WSW 8 13 30.07 1018 3 5 0.15 3.81
8:53 am 08:53 Partly Cloudy 72 22.2 71 21.7 97 97 S 3 6 30.06 1018 10 16 0.01 0.25
9:53 am 09:53 Partly Cloudy with Light Rain 72 22.2 71 21.7 97 97 S 5 7 30.06 1018 10 16 0.02 0.51
10:53 am 10:53 Mostly Cloudy 76 24.4 72 22.2 88 88 S 8 13 30.05 1018 10 16 N/A
11:14 am 11:14 Cloudy 75 24 72 22 89 89 SSW 8 13 30.03 1017 10 16 N/A
11:53 am 11:53 Cloudy 76 24.4 72 22.2 88 88 SSW 6 9 30.06 1018 10 16 N/A
12:33 pm 12:33 Cloudy 78 25.6 71 21.7 79 79 SW 9 15 30.03 1017 10 16 N/A
12:53 pm 12:53 Cloudy 78 25.6 72 22.2 82 82 SSW 9 15 30.05 1018 10 16 N/A
1:53 pm 13:53 Mostly Cloudy 81 27.2 71 21.7 72 72 WSW 13 20 30.04 1017 10 16 N/A
2:53 pm 14:53 Mostly Cloudy 82 27.8 71 21.7 69 69 SW 12 19 30.02 1017 10 16 N/A
3:53 pm 15:53 Mostly Cloudy 82 27.8 70 21.1 67 67 SW 14 22 30.00 1016 10 16 N/A
4:53 pm 16:53 Mostly Cloudy 83 28.3 70 21.1 65 65 W 14 22 29.99 1016 10 16 N/A
5:53 pm 17:53 Mostly Cloudy with Light Rain 79 26.1 71 21.7 77 77 WNW 10 17 30.01 1016 3 5 0.05 1.27
6:53 pm 18:53 Partly Cloudy with Light Rain 78 25.6 72 22.2 82 82 N N/A 29.99 1016 10 16 0.11 2.79
7:53 pm 19:53 Cloudy 76 24.4 75 23.9 97 97 N N/A 30.01 1016 10 16 0.01 0.25
8:53 pm 20:53 Partly Cloudy 75 23.9 75 23.9 100 100 N N/A 30.00 1016 8 13 N/A
9:05 pm 21:05 Mostly Cloudy with Heavy Rain 75 24 75 24 100 100 NNW 7 11 30.00 1016 3 5 N/A
9:08 pm 21:08 Mostly Cloudy with Heavy Rain 75 24 73 23 94 94 WNW 7 11 30.00 1016 2 2 N/A
9:24 pm 21:24 Mostly Cloudy with Light Rain 73 23 70 21 89 89 NNW 7 11 30.00 1016 4 6 N/A
9:33 pm 21:33 Cloudy with Thunderstorms 73 22.8 70 21.1 90 90 W 7 11 30.00 1016 5 8 0.50 12.70
9:53 pm 21:53 Mostly Cloudy with Thunderstorms 72 22.2 70 21.1 94 94 S 5 7 30.03 1017 7 11 0.51 12.95
10:07 pm 22:07 Partly Cloudy 71 21.7 70 21.1 96 96 S 3 6 30.03 1017 10 16 N/A
10:53 pm 22:53 Clear 71 21.7 70 21.1 96 96 SSE 3 6 30.04 1017 10 16 N/A
11:53 pm 23:53 Mostly Clear 71 21.7 70 21.1 96 96 N N/A 30.03 1017 9 14 N/A

Powered by AerisWeather